Regional Weather Roundup
Issued by NWS

Home | Current Version | Previous Version | Graphics & Text | Print | Product List | Glossary On
Versions: 1 2 3 4 5 6 7 8 9 10 11 12 13 14 15 16 17 18 19 20 21 22 23 24 25 26 27
000
ASUS45 KBOI 091510
RWRID

IDAHO REGIONAL WEATHER ROUNDUP
NATIONAL WEATHER SERVICE BOISE ID
800 AM MST FRI DEC 09 2016

NOTE: "FAIR" INDICATES FEW OR NO CLOUDS BELOW 12000 FEET
WITH NO SIGNIFICANT WEATHER AND/OR OBSTRUCTIONS TO VISIBILITY

IDZ012-014-091600-
SOUTHWEST IDAHO


CITY           SKY/WX    TMP DP  RH WIND       PRES   REMARKS
BOISE          CLOUDY    26  23  88 CALM      30.15R
CALDWELL       CLOUDY    25  23  92 CALM      30.17S
MOUNTAIN HOME  CLOUDY    27  25  94 SE6       30.12F WCI  20
$$

IDZ016-017-091600-
SOUTHCENTRAL IDAHO


CITY           SKY/WX    TMP DP  RH WIND       PRES   REMARKS
BURLEY         CLOUDY    23  20  88 CALM      30.11R
JEROME         CLOUDY    26  24  92 NE16      30.10F WCI  14
TWIN FALLS     MIX PCPN  30  27  88 SE9       30.09F WCI  22
$$

IDZ019>023-091600-
SOUTHEAST IDAHO


CITY           SKY/WX    TMP DP  RH WIND       PRES   REMARKS
IDAHO FALLS    CLOUDY    20  16  84 N7        30.14S FOG     WCI  11
POCATELLO      CLOUDY    21  18  88 N6        30.14S WCI  13
REXBURG        CLOUDY    21  18  88 N5        30.12S WCI  15
$$

IDZ006-010-011-018-031-032-091600-
CENTRAL IDAHO MOUNTAINS


CITY           SKY/WX    TMP DP  RH WIND       PRES   REMARKS
MCCALL         LGT SNOW  21  17  84 CALM      30.03R FOG
HAILEY         CLOUDY    21  19  93 W9        30.10R WCI  11
STANLEY          N/A     22  20  92 CALM      30.03R
SALMON         CLOUDY    12  10  92 CALM      30.15R
CHALLIS        CLOUDY    13  11  92 CALM      30.09R
$$

IDZ002-004-006-007-026-091600-
NORTHERN IDAHO


CITY           SKY/WX    TMP DP  RH WIND       PRES   REMARKS
LEWISTON       CLOUDY    24  21  88 CALM      30.16S
LOWELL           N/A     25  19  78 CALM      30.22S
COEUR D`ALENE  FLURRIES  15  10  80 N16       30.16S WCI  -1
MULLAN PASS    LGT SNOW   2  -1  88 S7        29.90S FOG     WCI -11
$$




USA.gov is the U.S. government's official web portal to all federal, state and local government web resources and services.